Location: Ffm
(50.0000°N, 8.5000°E)
Time: 08:57:02
(UTC+01:00)

Envisat - Pass Details

Date: 01 November 2020
Orbit: 764 x 766 km, 98.1° (Epoch: 03 December)

Event Time Altitude Azimuth Distance (km) Brightness Sun altitude
Rises 04:53:01 0° 31° (NNE) 3,242 6.7 -23.4°
Reaches altitude 10° 04:56:54 10° 61° (ENE) 2,308 6.4 -22.7°
Maximum altitude 04:58:55 12° 85° (E) 2,149 6.4 -22.4°
Drops below altitude 10° 05:00:57 10° 108° (ESE) 2,301 6.4 -22.1°
Sets 05:04:47 0° 138° (SE) 3,219 6.8 -21.5°
